sat.trackr.live / text

‹ back to catalog

STARLINK-37381

NORAD 68774 · 2026-086J

PAYLOAD ACTIVE UNKNOWN

§ Identity

Operator
Country
US
Launch date
2026-04-19
Launch site
AFWTR
Launch vehicle
Mass (kg)
RCS (m²)

Purposes: comms

External: N2YO · Heavens-Above · Gunter

§ Orbital elements

Epoch: 2026-09-19T07:48:00.660960Z

Period
93.91 min
Inclination
97.2810°
Eccentricity
0.0000683
Mean motion
15.33448643 rev/d
Perigee alt
465.1 km
Apogee alt
466.0 km
Semi-major
6,843.7 km
B*
5.5336e-4
RAAN
297.7495°
Arg perigee
113.8493°
Mean anomaly
246.2822°
Rev number
2,350

§ Raw data

STARLINK-373811 68774U 26086J   26262.32500765  .00017834  00000+0  55336-3 0  99972 68774  97.2810 297.7495 0000683 113.8493 246.2822 15.33448643 23507

JSON: /api/v1/satellites/68774 · /tle

For live sub-satellite position, see the globe view (requires WebGL).

§ Visibility from observer

Set your observer location to see the next 7 days of passes ≥ 10°. The values pass through the URL so the page stays shareable.

No JS? Fill the form by hand. The geolocation button needs JavaScript.